Regional Weather Roundup
Issued by NWS

Current Version | Previous Version | Text Only | Print | Product List | Glossary Off
Versions: 1 2 3 4 5 6 7 8 9 10 11 12 13 14 15 16 17 18 19 20 21 22 23 24 25 26 27 28 29 30 31 32 33 34 35 36 37 38 39 40 41 42 43 44 45 46 47 48 49 50

000
ASUS44 KMEG 232210
RWRTN
TENNESSEE HOURLY STATE WEATHER ROUNDUP
NATIONAL WEATHER SERVICE MEMPHIS TN
400 PM CST SUN NOV 23 2014

TNZ002-004-019-021-049-052-054-088>092-232300-
WEST TENNESSEE

CITY           SKY/WX    TMP DP  RH WIND       PRES   REMARKS
MEMPHIS INTL   LGT RAIN  63  60  90 S7        29.33R
NWS MEMPHIS      N/A     62 N/A N/A MISG        N/A
JACKSON        CLOUDY    61  57  88 S6        29.33F
DYERSBURG      CLOUDY    57  46  67 SE6       29.33F
UNION CITY     CLOUDY    55  55 100 SE7       29.32F
PARIS          CLOUDY    55  55 100 SE12      29.35F
HUNTINGDON     CLOUDY    57  55  93 SE12      29.34
LEXINGTON      CLOUDY    59  57  94 SE8       29.36F
SAVANNAH       MOCLDY    61  61 100 S9        29.37S
$$

TNZ008-025-027-028-033-062-065-066-232300-
NORTH MIDDLE TENNESSEE

CITY           SKY/WX    TMP DP  RH WIND       PRES   REMARKS
NASHVILLE      LGT RAIN  58  56  93 SE21G26   29.44F
CLARKSVILLE    LGT RAIN  58  56  93 SE15G24   29.39F
SMYRNA         LGT RAIN  57  57 100 SE10      29.45F
COOKEVILLE     CLOUDY    57  54  88 SE13      29.50F
CROSSVILLE     RAIN      56  51  84 SE10G25   29.57F
$$

TNZ061-075-076-078-094-096-097-232300-
SOUTH MIDDLE TENNESSEE

CITY           SKY/WX    TMP DP  RH WIND       PRES   REMARKS
FAYETTEVILLE   MOCLDY    55  54  94 N15       29.50S
TULLAHOMA      MOCLDY    55  54  94 SE14      29.49F
WINCHESTER     CLOUDY    55  55 100 SE16      29.49F
MCMINNVILLE    CLOUDY    57  57 100 VRB3      29.52S
SHELBYVILLE    MOCLDY    59  57  94 SE15      29.46F
$$

TNZ017-018-042-046-047-232300-
NORTHEAST TENNESSEE

CITY           SKY/WX    TMP DP  RH WIND       PRES   REMARKS
TRI CITIES     LGT RAIN  55  51  86 E8        29.76F
ELIZABETHTON   LGT RAIN  54  48  82 NE13      29.78F
$$

TNZ012-013-036-069-073-074-232300-
CENTRAL EAST TENNESSEE

CITY           SKY/WX    TMP DP  RH WIND       PRES   REMARKS
KNOXVILLE      CLOUDY    54  53  97 NE3       29.62F
OAK RIDGE      LGT RAIN  54  52  93 E5        29.63F
GATLINBURG     CLOUDY    54  52  94 E7        29.63F
MORRISTOWN     PTCLDY    55  54  94 E17       29.66F
$$

TNZ083-085-099-232300-
SOUTHEAST TENNESSEE

CITY           SKY/WX    TMP DP  RH WIND       PRES   REMARKS
CHATTANOOGA    RAIN      51  50  96 E6        29.62F VSB 1
$$

SKY/WX REPORTED AS FAIR MEANS FEW OR NO CLOUDS BELOW
12 THOUSAND FEET.



USA.gov is the U.S. government's official web portal to all federal, state and local government web resources and services.